Weather History for Soldotna, AK

Change the Weather History Date:

Wednesday, November 16, 2011

  Actual Average Record
Temperature  
Mean Temperature 16 °F -  
Max Temperature 17 °F 28 °F 45 °F (1967)
Min Temperature 14 °F 13 °F -20 °F (1956)
Degree Days  
Heating Degree Days 50    
Moisture  
Dew Point -6 °F    
Average Humidity 37    
Maximum Humidity 45    
Minimum Humidity 32    
Precipitation  
Precipitation 0.00 in - - ()
Sea Level Pressure  
Sea Level Pressure 29.85 in    
Wind  
Wind Speed 14 mph (North)    
Max Wind Speed 24 mph    
Max Gust Speed 38 mph    
Visibility 9 miles    
Events      
Averages and records for this station are not official NWS values.
T = Trace of Precipitation, MM = Missing Value Source: NWS Daily Summary

Daily Weather History Graph

Daily Weather History Graph

Search for Another Location

Airport:

Trip Planner

Search our weather history database for the weather conditions in past years. The results will help you decide how hot, cold, wet, or windy it might be!

Date:

Astronomy

Nov. 16, 2011 Rise Set
Actual Time 9:07 AM AKST 4:29 PM AKST
Civil Twilight 8:17 AM AKST 5:19 PM AKST
Nautical Twilight 7:24 AM AKST 6:12 PM AKST
Astronomical Twilight 6:34 AM AKST 7:02 PM AKST
Moon 10:13 PM AKST (11/16) 1:36 PM AKST (11/16)
Length of Visible Light 9h 02m
Length of Day
7h 21m
Waning Gibbous, 68% of the Moon is Illuminated
Nov 16
Waning Gibbous
Nov 18
Last Quarter
Nov 24
New
Dec 2
First Quarter
Dec 10
Full

Hourly Weather History & Observations

Time (AKST) Temp. Windchill Dew Point Humidity Pressure Visibility Wind Dir Wind Speed Gust Speed Precip Events Conditions
12:16 AM 14.0 °F -0.2 °F -4.0 °F 45% 29.77 in 10.0 mi North 12.7 mph 29.9 mph N/A   Clear
12:36 AM 15.8 °F 2.7 °F -4.0 °F 41% 29.76 in 10.0 mi North 11.5 mph 26.5 mph N/A   Clear
12:56 AM 15.8 °F -0.2 °F -4.0 °F 41% 29.76 in 10.0 mi North 17.3 mph 25.3 mph N/A   Clear
1:16 AM 15.8 °F 3.4 °F -4.0 °F 41% 29.75 in 10.0 mi North 10.4 mph 25.3 mph N/A   Clear
1:36 AM 15.8 °F -0.2 °F -4.0 °F 41% 29.76 in 9.0 mi North 17.3 mph 34.5 mph N/A   Clear
1:56 AM 15.8 °F 0.9 °F -4.0 °F 41% 29.75 in 10.0 mi North 15.0 mph 31.1 mph N/A   Clear
2:16 AM 15.8 °F -0.6 °F -4.0 °F 41% 29.76 in 9.0 mi North 18.4 mph 33.4 mph N/A   Clear
2:56 AM 15.8 °F 0.3 °F -4.0 °F 41% 29.75 in 7.0 mi North 16.1 mph 32.2 mph N/A   Clear
3:16 AM 15.8 °F 4.2 °F -4.0 °F 41% 29.75 in 10.0 mi North 9.2 mph 24.2 mph N/A   Clear
3:36 AM 15.8 °F 0.3 °F -4.0 °F 41% 29.76 in 9.0 mi North 16.1 mph 27.6 mph N/A   Clear
3:56 AM 15.8 °F -1.1 °F -5.8 °F 38% 29.76 in 7.0 mi North 19.6 mph 29.9 mph N/A   Clear
4:16 AM 15.8 °F 0.3 °F -5.8 °F 38% 29.76 in 9.0 mi North 16.1 mph 33.4 mph N/A   Clear
4:36 AM 15.8 °F 0.3 °F -5.8 °F 38% 29.77 in 9.0 mi North 16.1 mph 34.5 mph N/A   Clear
4:56 AM 15.8 °F 2.1 °F -5.8 °F 38% 29.77 in 5.0 mi North 12.7 mph 38.0 mph N/A   Clear
5:16 AM 15.8 °F -2.3 °F -5.8 °F 38% 29.78 in 9.0 mi North 23.0 mph 34.5 mph N/A   Clear
5:36 AM 15.8 °F 2.1 °F -5.8 °F 38% 29.78 in 10.0 mi North 12.7 mph 26.5 mph N/A   Clear
5:56 AM 15.8 °F 0.3 °F -5.8 °F 38% 29.79 in 5.0 mi North 16.1 mph 32.2 mph N/A   Clear
6:16 AM 15.8 °F 0.9 °F -5.8 °F 38% 29.80 in 7.0 mi North 15.0 mph 35.7 mph N/A   Clear
6:36 AM 15.8 °F 0.9 °F -5.8 °F 38% 29.80 in 7.0 mi North 15.0 mph 33.4 mph N/A   Clear
7:16 AM 15.8 °F 2.7 °F -5.8 °F 38% 29.81 in 10.0 mi North 11.5 mph 29.9 mph N/A   Clear
7:36 AM 15.8 °F 1.4 °F -5.8 °F 38% 29.81 in 9.0 mi North 13.8 mph 34.5 mph N/A   Clear
7:56 AM 15.8 °F 2.7 °F -5.8 °F 38% 29.81 in 9.0 mi North 11.5 mph 24.2 mph N/A   Clear
8:16 AM 15.8 °F 2.1 °F -4.0 °F 41% 29.83 in 10.0 mi North 12.7 mph 24.2 mph N/A   Clear
8:36 AM 15.8 °F -0.2 °F -5.8 °F 38% 29.84 in 7.0 mi North 17.3 mph 32.2 mph N/A   Clear
8:56 AM 15.8 °F 2.7 °F -5.8 °F 38% 29.83 in 8.0 mi North 11.5 mph 29.9 mph N/A   Clear
9:16 AM 15.8 °F 2.7 °F -5.8 °F 38% 29.84 in 9.0 mi North 11.5 mph 27.6 mph N/A   Clear
9:36 AM 15.8 °F 2.7 °F -4.0 °F 41% 29.85 in 9.0 mi North 11.5 mph 26.5 mph N/A   Clear
9:56 AM 15.8 °F 2.7 °F -5.8 °F 38% 29.86 in 10.0 mi North 11.5 mph 28.8 mph N/A   Clear
10:16 AM 15.8 °F 3.4 °F -4.0 °F 41% 29.85 in 10.0 mi North 10.4 mph 23.0 mph N/A   Clear
10:36 AM 15.8 °F -0.2 °F -5.8 °F 38% 29.86 in 6.0 mi North 17.3 mph 33.4 mph N/A   Clear
10:56 AM 17.6 °F 2.2 °F -5.8 °F 35% 29.86 in 10.0 mi North 17.3 mph 31.1 mph N/A   Clear
11:16 AM 17.6 °F -0.3 °F -5.8 °F 35% 29.88 in 6.0 mi North 24.2 mph 33.4 mph N/A   Clear
11:36 AM 17.6 °F 3.2 °F -5.8 °F 35% 29.87 in 9.0 mi NNE 15.0 mph 33.4 mph N/A   Clear
11:56 AM 17.6 °F 0.1 °F -5.8 °F 35% 29.88 in 8.0 mi North 23.0 mph 34.5 mph N/A   Clear
12:16 PM 17.6 °F 2.2 °F -5.8 °F 35% 29.88 in 10.0 mi North 17.3 mph 31.1 mph N/A   Clear
12:36 PM 17.6 °F 7.3 °F -4.0 °F 38% 29.88 in 10.0 mi North 8.1 mph 23.0 mph N/A   Clear
12:56 PM 17.6 °F 2.7 °F -5.8 °F 35% 29.89 in 10.0 mi North 16.1 mph 23.0 mph N/A   Clear
1:16 PM 17.6 °F 1.7 °F -5.8 °F 35% 29.89 in 10.0 mi North 18.4 mph 27.6 mph N/A   Clear
1:36 PM 17.6 °F 4.3 °F -5.8 °F 35% 29.89 in 10.0 mi North 12.7 mph 26.5 mph N/A   Clear
1:56 PM 17.6 °F 2.7 °F -5.8 °F 35% 29.90 in 10.0 mi NNE 16.1 mph 27.6 mph N/A   Clear
2:16 PM 17.6 °F 4.3 °F -5.8 °F 35% 29.90 in 10.0 mi NNE 12.7 mph 25.3 mph N/A   Clear
2:36 PM 17.6 °F 3.7 °F -5.8 °F 35% 29.90 in 9.0 mi NNE 13.8 mph 27.6 mph N/A   Clear
2:56 PM 17.6 °F 2.7 °F -5.8 °F 35% 29.90 in 9.0 mi North 16.1 mph 35.7 mph N/A   Clear
3:16 PM 17.6 °F 2.7 °F -7.6 °F 32% 29.90 in 9.0 mi North 16.1 mph 28.8 mph N/A   Clear
3:36 PM 17.6 °F 5.7 °F -7.6 °F 32% 29.90 in 9.0 mi NNE 10.4 mph 34.5 mph N/A   Clear
3:56 PM 17.6 °F 5.0 °F -7.6 °F 32% 29.90 in 10.0 mi North 11.5 mph 26.5 mph N/A   Clear
4:16 PM 17.6 °F 4.3 °F -7.6 °F 32% 29.91 in 8.0 mi North 12.7 mph 35.7 mph N/A   Clear
4:36 PM 15.8 °F -0.6 °F -7.6 °F 35% 29.92 in 9.0 mi North 18.4 mph 25.3 mph N/A   Clear
4:56 PM 15.8 °F 2.1 °F -5.8 °F 38% 29.91 in 10.0 mi North 12.7 mph 23.0 mph N/A   Clear
5:16 PM 15.8 °F 1.4 °F -5.8 °F 38% 29.92 in 10.0 mi North 13.8 mph 27.6 mph N/A   Clear
5:36 PM 15.8 °F 0.3 °F -5.8 °F 38% 29.93 in 9.0 mi NNE 16.1 mph 26.5 mph N/A   Clear
5:56 PM 15.8 °F 3.4 °F -5.8 °F 38% 29.93 in 10.0 mi North 10.4 mph 25.3 mph N/A   Clear
6:16 PM 15.8 °F -0.2 °F -5.8 °F 38% 29.93 in 10.0 mi North 17.3 mph 26.5 mph N/A   Clear
6:36 PM 15.8 °F 2.1 °F -5.8 °F 38% 29.93 in 10.0 mi North 12.7 mph 25.3 mph N/A   Clear
6:56 PM 15.8 °F 2.1 °F -5.8 °F 38% 29.95 in 10.0 mi North 12.7 mph 25.3 mph N/A   Clear
7:16 PM 15.8 °F 2.1 °F -5.8 °F 38% 29.95 in 10.0 mi North 12.7 mph 27.6 mph N/A   Clear
7:36 PM 15.8 °F -1.5 °F -7.6 °F 35% 29.98 in 9.0 mi NNE 20.7 mph 38.0 mph N/A   Clear
7:56 PM 15.8 °F -0.2 °F -7.6 °F 35% 29.96 in 10.0 mi North 17.3 mph 28.8 mph N/A   Clear
8:16 PM 15.8 °F 2.7 °F -7.6 °F 35% 29.96 in 10.0 mi NNE 11.5 mph 24.2 mph N/A   Clear
8:36 PM 15.8 °F 1.4 °F -7.6 °F 35% 29.96 in 9.0 mi North 13.8 mph 27.6 mph N/A   Clear
8:56 PM 15.8 °F 2.7 °F -7.6 °F 35% 29.96 in 10.0 mi North 11.5 mph 24.2 mph N/A   Clear
9:16 PM 15.8 °F 2.1 °F -5.8 °F 38% 29.95 in 10.0 mi NNE 12.7 mph 21.9 mph N/A   Clear
9:36 PM 15.8 °F 2.7 °F -5.8 °F 38% 29.95 in 10.0 mi NNE 11.5 mph 21.9 mph N/A   Clear
9:56 PM 15.8 °F 2.1 °F -5.8 °F 38% 29.95 in 10.0 mi NNE 12.7 mph 23.0 mph N/A   Clear
10:16 PM 15.8 °F 2.7 °F -5.8 °F 38% 29.96 in 10.0 mi NNE 11.5 mph 20.7 mph N/A   Clear
10:36 PM 15.8 °F 3.4 °F -5.8 °F 38% 29.96 in 10.0 mi NNE 10.4 mph 20.7 mph N/A   Clear
10:56 PM 15.8 °F 2.7 °F -5.8 °F 38% 29.96 in 10.0 mi North 11.5 mph 19.6 mph N/A   Clear
11:16 PM 15.8 °F 4.2 °F -5.8 °F 38% 29.96 in 10.0 mi NNE 9.2 mph 20.7 mph N/A   Clear
11:36 PM 15.8 °F 4.2 °F -5.8 °F 38% 29.96 in 10.0 mi North 9.2 mph 19.6 mph N/A   Clear
11:56 PM 15.8 °F 5.1 °F -5.8 °F 38% 29.97 in 10.0 mi North 8.1 mph 23.0 mph N/A   Clear